Regional Weather Roundup
Issued by NWS

Home | Current Version | Previous Version | Graphics & Text | Print | Product List | Glossary On
Versions: 1 2 3 4 5 6 7 8 9 10 11 12 13 14 15 16 17 18 19 20 21 22 23 24 25 26 27 28 29 30 31 32 33 34 35 36 37 38 39 40 41 42 43 44 45 46 47 48 49 50
000
ASUS43 KLMK 180202
RWRKY
KENTUCKY REGIONAL WEATHER ROUNDUP
NATIONAL WEATHER SERVICE LOUISVILLE KY
900 PM EST FRI NOV 17 2017

NOTE "FAIR" INDICATES FEW OR NO CLOUDS BELOW 12,000 FEET
WITH NO SIGNIFICANT WEATHER AND/OR OBSTRUCTIONS TO VISIBILITY.

KYZ001>023-026-027-061>063-070>075-180300-
WESTERN AND SOUTH CENTRAL KENTUCKY

CITY           SKY/WX    TMP DP  RH WIND       PRES   REMARKS
PADUCAH        PTCLDY    63  47  55 S15G26    29.76F
HENDERSON      CLOUDY    55  41  59 SE10      29.80F
OWENSBORO      CLOUDY    55  41  59 S10       29.82F
HOPKINSVILLE   CLOUDY    61  33  34 S12       29.84F
BOWLING GREEN  CLOUDY    60  35  39 S10       29.88F
GLASGOW        NOT AVBL
$$

KYZ024-025-028>034-038-045-046-053-180300-
NORTH CENTRAL KENTUCKY

CITY           SKY/WX    TMP DP  RH WIND       PRES   REMARKS
LOUISVILLE/SDF CLOUDY    51  39  63 SE8       29.87F
LOUISVILLE/LOU CLOUDY    52  39  61 SE9       29.88F
FORT KNOX      CLOUDY    51  38  63 SE5       29.86F
$$

KYZ035>037-039>044-047>052-055>060-089>105-180300-
NORTHEAST KENTUCKY

CITY           SKY/WX    TMP DP  RH WIND       PRES   REMARKS
LEXINGTON      CLOUDY    47  35  63 SE7       29.92F
COVINGTON      CLOUDY    48  36  63 SE12      29.88F
FRANKFORT      MOCLDY    47  35  63 SE6       29.89F
$$

KYZ054-064>069-076>088-106>120-180300-
SOUTHEAST KENTUCKY

CITY           SKY/WX    TMP DP  RH WIND       PRES   REMARKS
JACKSON        PTCLDY    50  28  42 S5        29.97F
LONDON         CLOUDY    45  35  68 S5        29.97F
SOMERSET       MOCLDY    52  34  50 S5        29.96F
MIDDLESBORO    PTCLDY    42  37  80 CALM      30.03S
MONTICELLO     PTCLDY    57  35  43 SE8       29.96F
$$





USA.gov is the U.S. government's official web portal to all federal, state and local government web resources and services.